Weather History for Marrakech, Morocco

Change the Weather History Date:

Wednesday, January 15, 2014

  Actual Average Record
Temperature  
Mean Temperature 56 °F -  
Max Temperature 70 °F 65 °F 75 °F (2007)
Min Temperature 41 °F 44 °F 33 °F (2003)
Degree Days  
Heating Degree Days 10    
Growing Degree Days 6 (Base 50)    
Moisture  
Dew Point 39 °F    
Average Humidity 52    
Maximum Humidity 87    
Minimum Humidity 22    
Precipitation  
Precipitation 0.00 in 0.05 in - ()
Sea Level Pressure  
Sea Level Pressure 30.11 in    
Wind  
Wind Speed 3 mph ()    
Max Wind Speed 9 mph    
Max Gust Speed -    
Visibility 5.1 miles    
Events      
Averages and records for this station are not official NWS values.
T = Trace of Precipitation, MM = Missing Value Source: Averaged Metar Reports

Daily Weather History Graph

Daily Weather History Graph

Search for Another Location

Airport:

Trip Planner

Search our weather history database for the weather conditions in past years. The results will help you decide how hot, cold, wet, or windy it might be!

Date:

Astronomy

Jan. 15, 2014 Rise Set
Actual Time 7:32 AM WET 5:51 PM WET
Civil Twilight 7:05 AM WET 6:17 PM WET
Nautical Twilight 6:35 AM WET 6:47 PM WET
Astronomical Twilight 6:06 AM WET 7:16 PM WET
Moon 5:33 PM WET (1/15) 6:41 AM WET (1/15)
Length of Visible Light 11h 11m
Length of Day
10h 19m
Full, 100% of the Moon is Illuminated
Jan 15
Full
Jan 16
Full
Jan 24
Last Quarter
Jan 30
New
Feb 6
First Quarter

Hourly Weather History & Observations

Time (WET) Temp. Windchill Dew Point Humidity Pressure Visibility Wind Dir Wind Speed Gust Speed Precip Events Conditions
12:00 AM 49 °F - 38 °F 54% 30.21 in 6 mi East 3.5 mph - -  
12:00 AM 48.2 °F - 37.4 °F 66% 30.21 in - East 5.8 mph - N/A   Clear
3:00 AM 46 °F - 37 °F 63% 30.17 in 6 mi East 3.5 mph - -  
3:00 AM 46.4 °F 45.2 °F 37.4 °F 71% 30.15 in - East 3.5 mph - N/A   Clear
6:00 AM 43 °F - 37 °F 72% 30.16 in 6 mi East 3.5 mph - -  
6:00 AM 42.8 °F 41.1 °F 37.4 °F 81% 30.15 in - East 3.5 mph - N/A   Clear
7:00 AM 41.0 °F - 37.4 °F 87% 30.18 in - Calm Calm - N/A   Clear
8:00 AM 42.8 °F - 39.2 °F 87% 30.18 in - Calm Calm - N/A   Clear
9:00 AM 50 °F - 41 °F 61% 30.18 in 5 mi East 2.3 mph - -   Clear
9:00 AM 50.0 °F - 41.0 °F 71% 30.15 in 5.0 mi East 2.3 mph - N/A   Unknown
10:00 AM 55.4 °F - 41.0 °F 58% 30.15 in 5.0 mi East 2.3 mph - N/A   Unknown
11:00 AM 59.0 °F - 41.0 °F 51% 30.15 in 5.0 mi ESE 2.3 mph - N/A   Unknown
12:00 PM 62 °F - 41 °F 35% 30.10 in 5 mi ENE 9.2 mph - -   Clear
12:00 PM 62.6 °F - 41.0 °F 45% 30.12 in 5.0 mi ENE 9.2 mph - N/A   Unknown
1:00 PM 64.4 °F - 41.0 °F 42% 30.09 in - NE 6.9 mph - N/A   Clear
2:00 PM 68.0 °F - 39.2 °F 35% 30.06 in - NNE 3.5 mph - N/A   Clear
3:00 PM 69 °F - 39 °F 22% 30.01 in 6 mi Calm Calm - -  
3:00 PM 68.0 °F - 39.2 °F 35% 30.04 in - Calm Calm - N/A   Clear
4:00 PM 69.8 °F - 37.4 °F 31% 30.06 in - Calm Calm - N/A   Clear
5:00 PM 69.8 °F - 37.4 °F 31% 30.06 in - WSW 4.6 mph - N/A   Clear
6:00 PM 66 °F - 38 °F 25% 30.04 in 6 mi West 4.6 mph - -   Scattered Clouds
6:00 PM 66.2 °F - 37.4 °F 35% 30.04 in - West 4.6 mph - N/A   Clear
7:00 PM 62.6 °F - 39.2 °F 42% 30.06 in - Calm Calm - N/A   Clear
8:00 PM 57.2 °F - 37.4 °F 48% 30.06 in - Calm Calm - N/A   Clear
9:00 PM 57 °F - 39 °F 40% 30.06 in 4 mi South 2.3 mph - -   Clear
9:00 PM 57.2 °F - 39.2 °F 51% 30.06 in 3.7 mi South 2.3 mph - N/A   Unknown
10:00 PM 55.4 °F - 39.2 °F 54% 30.06 in 4.3 mi Calm Calm - N/A   Unknown
11:00 PM 53.6 °F - 39.2 °F 58% 30.06 in - SSW 3.5 mph - N/A   Clear